Year,Month,Day,Hour,Minute,Value (Times are PST for temperature in C)
2014,07,25,00,00,12.60
2014,07,25,00,01,12.60
2014,07,25,00,02,12.50
2014,07,25,00,03,12.50
2014,07,25,00,04,12.50
2014,07,25,00,05,12.50
2014,07,25,00,06,12.50
2014,07,25,00,07,12.50
2014,07,25,00,08,12.40
2014,07,25,00,09,12.40
2014,07,25,00,10,12.40
2014,07,25,00,11,12.40
2014,07,25,00,12,12.40
2014,07,25,00,16,12.40
2014,07,25,00,17,12.30
2014,07,25,00,18,12.30
2014,07,25,00,19,12.30
2014,07,25,00,20,12.30
2014,07,25,00,21,12.30
2014,07,25,00,22,12.30
2014,07,25,00,23,12.30
2014,07,25,00,24,12.30
2014,07,25,00,25,12.30
2014,07,25,00,26,12.30
2014,07,25,00,27,12.30
2014,07,25,00,28,12.30
2014,07,25,00,29,12.20
2014,07,25,00,30,12.20
2014,07,25,00,31,12.20
2014,07,25,00,32,12.20
2014,07,25,00,33,12.20
2014,07,25,00,34,12.20
2014,07,25,00,35,12.10
2014,07,25,00,36,12.10
2014,07,25,00,37,12.10
2014,07,25,00,38,12.10
2014,07,25,00,39,12.10
2014,07,25,00,40,12.00
2014,07,25,00,41,12.00
2014,07,25,00,42,12.00
2014,07,25,00,43,12.00
2014,07,25,00,44,12.00
2014,07,25,00,45,12.00
2014,07,25,00,46,11.90
2014,07,25,00,47,11.90
2014,07,25,00,48,11.90
2014,07,25,00,49,11.90
2014,07,25,00,50,11.90
2014,07,25,00,51,11.80
2014,07,25,00,52,11.80
2014,07,25,00,53,11.80
2014,07,25,00,54,11.80
2014,07,25,00,55,11.80
2014,07,25,00,56,11.80
2014,07,25,00,57,11.80
2014,07,25,00,58,11.80
2014,07,25,00,59,11.80
2014,07,25,01,00,11.80
2014,07,25,01,01,11.80
2014,07,25,01,02,11.80
2014,07,25,01,03,11.80
2014,07,25,01,04,11.70
2014,07,25,01,05,11.70
2014,07,25,01,06,11.70
2014,07,25,01,07,11.70
2014,07,25,01,08,11.70
2014,07,25,01,09,11.70
2014,07,25,01,10,11.60
2014,07,25,01,11,11.60
2014,07,25,01,12,11.60
2014,07,25,01,13,11.60
2014,07,25,01,14,11.60
2014,07,25,01,15,11.60
2014,07,25,01,16,11.60
2014,07,25,01,17,11.60
2014,07,25,01,18,11.60
2014,07,25,01,19,11.60
2014,07,25,01,20,11.60
2014,07,25,01,21,11.60
2014,07,25,01,22,11.60
2014,07,25,01,23,11.60
2014,07,25,01,24,11.50
2014,07,25,01,25,11.40
2014,07,25,01,26,11.40
2014,07,25,01,27,11.40
2014,07,25,01,28,11.40
2014,07,25,01,29,11.40
2014,07,25,01,30,11.40
2014,07,25,01,31,11.40
2014,07,25,01,32,11.40
2014,07,25,01,33,11.40
2014,07,25,01,34,11.40
2014,07,25,01,35,11.40
2014,07,25,01,36,11.40
2014,07,25,01,37,11.40
2014,07,25,01,38,11.30
2014,07,25,01,39,11.30
2014,07,25,01,40,11.30
2014,07,25,01,41,11.30
2014,07,25,01,42,11.30
2014,07,25,01,43,11.30
2014,07,25,01,44,11.30
2014,07,25,01,45,11.30
2014,07,25,01,46,11.20
2014,07,25,01,47,11.20
2014,07,25,01,48,11.20
2014,07,25,01,49,11.20
2014,07,25,01,50,11.20
2014,07,25,01,51,11.20
2014,07,25,01,52,11.20
2014,07,25,01,53,11.20
2014,07,25,01,54,11.10
2014,07,25,01,55,11.10
2014,07,25,01,56,11.10
2014,07,25,01,57,11.10
2014,07,25,01,58,11.10
2014,07,25,01,59,11.10
2014,07,25,02,00,11.10
2014,07,25,02,01,11.10
2014,07,25,02,02,11.10
2014,07,25,02,03,11.10
2014,07,25,02,04,11.10
2014,07,25,02,05,11.10
2014,07,25,02,06,11.10
2014,07,25,02,07,11.10
2014,07,25,02,08,11.10
2014,07,25,02,09,11.10
2014,07,25,02,10,11.10
2014,07,25,02,11,11.10
2014,07,25,02,12,11.10
2014,07,25,02,13,11.00
2014,07,25,02,14,10.90
2014,07,25,02,15,10.90
2014,07,25,02,16,10.90
2014,07,25,02,17,10.90
2014,07,25,02,18,10.90
2014,07,25,02,19,10.90
2014,07,25,02,20,10.90
2014,07,25,02,21,10.90
2014,07,25,02,22,10.90
2014,07,25,02,23,10.90
2014,07,25,02,24,10.90
2014,07,25,02,25,10.90
2014,07,25,02,26,10.90
2014,07,25,02,27,10.90
2014,07,25,02,28,10.90
2014,07,25,02,29,10.90
2014,07,25,02,30,10.90
2014,07,25,02,31,10.90
2014,07,25,02,32,10.90
2014,07,25,02,33,10.90
2014,07,25,02,34,10.90
2014,07,25,02,35,10.90
2014,07,25,02,36,10.80
2014,07,25,02,37,10.80
2014,07,25,02,38,10.80
2014,07,25,02,39,10.80
2014,07,25,02,40,10.80
2014,07,25,02,41,10.80
2014,07,25,02,42,10.80
2014,07,25,02,43,10.80
2014,07,25,02,44,10.80
2014,07,25,02,45,10.80
2014,07,25,02,46,10.80
2014,07,25,02,47,10.80
2014,07,25,02,48,10.70
2014,07,25,02,49,10.70
2014,07,25,02,50,10.70
2014,07,25,02,51,10.70
2014,07,25,02,52,10.70
2014,07,25,02,53,10.70
2014,07,25,02,54,10.70
2014,07,25,02,55,10.70
2014,07,25,02,56,10.70
2014,07,25,02,57,10.70
2014,07,25,02,58,10.70
2014,07,25,02,59,10.70
2014,07,25,03,00,10.60
2014,07,25,03,01,10.60
2014,07,25,03,02,10.60
2014,07,25,03,03,10.60
2014,07,25,03,04,10.60
2014,07,25,03,05,10.60
2014,07,25,03,06,10.60
2014,07,25,03,07,10.60
2014,07,25,03,08,10.60
2014,07,25,03,09,10.60
2014,07,25,03,10,10.60
2014,07,25,03,11,10.60
2014,07,25,03,12,10.60
2014,07,25,03,13,10.60
2014,07,25,03,14,10.60
2014,07,25,03,15,10.60
2014,07,25,03,16,10.60
2014,07,25,03,17,10.60
2014,07,25,03,18,10.60
2014,07,25,03,19,10.60
2014,07,25,03,20,10.60
2014,07,25,03,21,10.60
2014,07,25,03,22,10.60
2014,07,25,03,23,10.60
2014,07,25,03,24,10.50
2014,07,25,03,25,10.40
2014,07,25,03,26,10.40
2014,07,25,03,27,10.40
2014,07,25,03,28,10.40
2014,07,25,03,29,10.40
2014,07,25,03,30,10.40
2014,07,25,03,31,10.40
2014,07,25,03,32,10.40
2014,07,25,03,33,10.40
2014,07,25,03,34,10.40
2014,07,25,03,35,10.40
2014,07,25,03,36,10.40
2014,07,25,03,37,10.40
2014,07,25,03,38,10.40
2014,07,25,03,39,10.40
2014,07,25,03,40,10.40
2014,07,25,03,41,10.40
2014,07,25,03,42,10.40
2014,07,25,03,43,10.40
2014,07,25,03,44,10.40
2014,07,25,03,45,10.40
2014,07,25,03,46,10.40
2014,07,25,03,47,10.40
2014,07,25,03,48,10.40
2014,07,25,03,49,10.40
2014,07,25,03,50,10.40
2014,07,25,03,51,10.40
2014,07,25,03,52,10.30
2014,07,25,03,53,10.30
2014,07,25,03,54,10.30
2014,07,25,03,55,10.30
2014,07,25,03,56,10.30
2014,07,25,03,57,10.30
2014,07,25,03,58,10.30
2014,07,25,03,59,10.30
2014,07,25,04,00,10.30
2014,07,25,04,01,10.30
2014,07,25,04,02,10.30
2014,07,25,04,03,10.20
2014,07,25,04,04,10.20
2014,07,25,04,05,10.20
2014,07,25,04,06,10.20
2014,07,25,04,07,10.20
2014,07,25,04,08,10.20
2014,07,25,04,09,10.20
2014,07,25,04,10,10.20
2014,07,25,04,11,10.20
2014,07,25,04,12,10.20
2014,07,25,04,13,10.20
2014,07,25,04,14,10.20
2014,07,25,04,15,10.20
2014,07,25,04,16,10.20
2014,07,25,04,17,10.20
2014,07,25,04,18,10.20
2014,07,25,04,19,10.20
2014,07,25,04,20,10.20
2014,07,25,04,21,10.20
2014,07,25,04,22,10.20
2014,07,25,04,23,10.10
2014,07,25,04,24,10.10
2014,07,25,04,25,10.10
2014,07,25,04,26,10.10
2014,07,25,04,27,10.10
2014,07,25,04,28,10.10
2014,07,25,04,29,10.10
2014,07,25,04,30,10.10
2014,07,25,04,31,10.10
2014,07,25,04,32,10.10
2014,07,25,04,33,10.10
2014,07,25,04,34,10.10
2014,07,25,04,35,10.10
2014,07,25,04,36,10.10
2014,07,25,04,37,10.10
2014,07,25,04,38,10.10
2014,07,25,04,39,10.10
2014,07,25,04,40,10.10
2014,07,25,04,41,10.10
2014,07,25,04,42,10.10
2014,07,25,04,43,9.90
2014,07,25,04,44,9.90
2014,07,25,04,45,9.90
2014,07,25,04,46,9.90
2014,07,25,04,47,9.90
2014,07,25,04,48,9.90
2014,07,25,04,49,9.90
2014,07,25,04,50,9.90
2014,07,25,04,51,9.90
2014,07,25,04,52,9.90
2014,07,25,04,53,9.90
2014,07,25,04,54,9.90
2014,07,25,04,55,9.90
2014,07,25,04,56,9.90
2014,07,25,04,57,9.90
2014,07,25,04,58,9.90
2014,07,25,04,59,9.90
2014,07,25,05,00,9.90
2014,07,25,05,01,9.90
2014,07,25,05,02,9.90
2014,07,25,05,03,9.90
2014,07,25,05,04,9.90
2014,07,25,05,05,9.90
2014,07,25,05,06,9.90
2014,07,25,05,07,9.90
2014,07,25,05,08,9.90
2014,07,25,05,09,9.90
2014,07,25,05,10,9.90
2014,07,25,05,11,9.90
2014,07,25,05,12,9.90
2014,07,25,05,13,9.90
2014,07,25,05,14,9.90
2014,07,25,05,15,9.90
2014,07,25,05,16,9.90
2014,07,25,05,17,9.90
2014,07,25,05,18,9.90
2014,07,25,05,19,9.90
2014,07,25,05,20,9.80
2014,07,25,05,21,9.80
2014,07,25,05,22,9.80
2014,07,25,05,23,9.80
2014,07,25,05,24,9.80
2014,07,25,05,25,9.80
2014,07,25,05,26,9.80
2014,07,25,05,27,9.80
2014,07,25,05,28,9.70
2014,07,25,05,29,9.70
2014,07,25,05,30,9.70
2014,07,25,05,31,9.70
2014,07,25,05,32,9.70
2014,07,25,05,33,9.70
2014,07,25,05,34,9.70
2014,07,25,05,35,9.70
2014,07,25,05,36,9.70
2014,07,25,05,37,9.70
2014,07,25,05,38,9.70
2014,07,25,05,39,9.70
2014,07,25,05,40,9.70
2014,07,25,05,41,9.70
2014,07,25,05,42,9.70
2014,07,25,05,43,9.70
2014,07,25,05,44,9.70
2014,07,25,05,45,9.70
2014,07,25,05,46,9.70
2014,07,25,05,47,9.70
2014,07,25,05,48,9.70
2014,07,25,05,49,9.70
2014,07,25,05,50,9.70
2014,07,25,05,51,9.70
2014,07,25,05,52,9.70
2014,07,25,05,53,9.70
2014,07,25,05,54,9.70
2014,07,25,05,55,9.70
2014,07,25,05,56,9.70
2014,07,25,05,57,9.70
2014,07,25,05,58,9.70
2014,07,25,05,59,9.70
2014,07,25,06,00,9.70
2014,07,25,06,01,9.70
2014,07,25,06,02,9.70
2014,07,25,06,03,9.70
2014,07,25,06,04,9.70
2014,07,25,06,05,9.70
2014,07,25,06,06,9.70
2014,07,25,06,07,9.70
2014,07,25,06,08,9.70
2014,07,25,06,09,9.70
2014,07,25,06,10,9.70
2014,07,25,06,11,9.70
2014,07,25,06,12,9.70
2014,07,25,06,13,9.70
2014,07,25,06,14,9.70
2014,07,25,06,15,9.70
2014,07,25,06,16,9.70
2014,07,25,06,17,9.70
2014,07,25,06,18,9.70
2014,07,25,06,19,9.70
2014,07,25,06,20,9.70
2014,07,25,06,21,9.70
2014,07,25,06,22,9.70
2014,07,25,06,23,9.70
2014,07,25,06,24,9.70
2014,07,25,06,25,9.70
2014,07,25,06,26,9.70
2014,07,25,06,27,9.70
2014,07,25,06,28,9.70
2014,07,25,06,29,9.70
2014,07,25,06,30,9.70
2014,07,25,06,31,9.70
2014,07,25,06,32,9.70
2014,07,25,06,33,9.70
2014,07,25,06,34,9.70
2014,07,25,06,35,9.70
2014,07,25,06,36,9.70
2014,07,25,06,37,9.70
2014,07,25,06,38,9.70
2014,07,25,06,39,9.70
2014,07,25,06,40,9.70
2014,07,25,06,41,9.70
2014,07,25,06,42,9.70
2014,07,25,06,43,9.70
2014,07,25,06,44,9.70
2014,07,25,06,45,9.70
2014,07,25,06,46,9.70
2014,07,25,06,47,9.70
2014,07,25,06,48,9.70
2014,07,25,06,49,9.70
2014,07,25,06,50,9.80
2014,07,25,06,51,9.80
2014,07,25,06,52,9.80
2014,07,25,06,53,9.90
2014,07,25,06,54,9.90
2014,07,25,06,55,9.90
2014,07,25,06,56,9.90
2014,07,25,06,57,9.90
2014,07,25,06,58,9.90
2014,07,25,06,59,9.90
2014,07,25,07,00,10.00
2014,07,25,07,01,10.10
2014,07,25,07,02,10.10
2014,07,25,07,03,10.10
2014,07,25,07,04,10.10
2014,07,25,07,05,10.10
2014,07,25,07,06,10.10
2014,07,25,07,07,10.20
2014,07,25,07,08,10.20
2014,07,25,07,09,10.20
2014,07,25,07,10,10.20
2014,07,25,07,11,10.20
2014,07,25,07,12,10.30
2014,07,25,07,13,10.30
2014,07,25,07,14,10.30
2014,07,25,07,15,10.30
2014,07,25,07,16,10.30
2014,07,25,07,17,10.40
2014,07,25,07,18,10.40
2014,07,25,07,19,10.40
2014,07,25,07,20,10.40
2014,07,25,07,21,10.40
2014,07,25,07,22,10.50
2014,07,25,07,23,10.60
2014,07,25,07,24,10.60
2014,07,25,07,25,10.60
2014,07,25,07,26,10.60
2014,07,25,07,27,10.60
2014,07,25,07,28,10.70
2014,07,25,07,29,10.70
2014,07,25,07,30,10.70
2014,07,25,07,31,10.70
2014,07,25,07,32,10.70
2014,07,25,07,33,10.80
2014,07,25,07,34,10.80
2014,07,25,07,35,10.80
2014,07,25,07,36,10.90
2014,07,25,07,37,10.90
2014,07,25,07,38,10.90
2014,07,25,07,39,10.90
2014,07,25,07,40,10.90
2014,07,25,07,41,10.90
2014,07,25,07,42,11.00
2014,07,25,07,43,11.10
2014,07,25,07,44,11.10
2014,07,25,07,45,11.10
2014,07,25,07,46,11.10
2014,07,25,07,47,11.10
2014,07,25,07,48,11.20
2014,07,25,07,49,11.20
2014,07,25,07,50,11.30
2014,07,25,07,51,11.30
2014,07,25,07,52,11.40
2014,07,25,07,53,11.40
2014,07,25,07,54,11.40
2014,07,25,07,55,11.40
2014,07,25,07,56,11.50
2014,07,25,07,57,11.60
2014,07,25,07,58,11.60
2014,07,25,07,59,11.60
2014,07,25,08,00,11.70
2014,07,25,08,01,11.80
2014,07,25,08,02,11.80
2014,07,25,08,03,11.90
2014,07,25,08,04,12.00
2014,07,25,08,05,12.00
2014,07,25,08,06,12.10
2014,07,25,08,07,12.20
2014,07,25,08,08,12.30
2014,07,25,08,09,12.30
2014,07,25,08,10,12.40
2014,07,25,08,11,12.40
2014,07,25,08,12,12.40
2014,07,25,08,13,12.50
2014,07,25,08,14,12.50
2014,07,25,08,15,12.50
2014,07,25,08,16,12.50
2014,07,25,08,17,12.60
2014,07,25,08,18,12.60
2014,07,25,08,19,12.60
2014,07,25,08,20,12.60
2014,07,25,08,21,12.60
2014,07,25,08,22,12.60
2014,07,25,08,23,12.60
2014,07,25,08,24,12.60
2014,07,25,08,25,12.60
2014,07,25,08,26,12.60
2014,07,25,08,27,12.60
2014,07,25,08,28,12.60
2014,07,25,08,29,12.60
2014,07,25,08,30,12.60
2014,07,25,08,31,12.70
2014,07,25,08,32,12.70
2014,07,25,08,33,12.70
2014,07,25,08,34,12.70
2014,07,25,08,35,12.80
2014,07,25,08,36,12.80
2014,07,25,08,37,12.80
2014,07,25,08,38,12.90
2014,07,25,08,39,13.00
2014,07,25,08,40,13.00
2014,07,25,08,41,13.10
2014,07,25,08,42,13.20
2014,07,25,08,43,13.30
2014,07,25,08,44,13.30
2014,07,25,08,45,13.30
2014,07,25,08,46,13.40
2014,07,25,08,47,13.40
2014,07,25,08,48,13.50
2014,07,25,08,49,13.50
2014,07,25,08,50,13.60
2014,07,25,08,51,13.60
2014,07,25,08,52,13.60
2014,07,25,08,53,13.60
2014,07,25,08,54,13.60
2014,07,25,08,55,13.60
2014,07,25,08,56,13.70
2014,07,25,08,57,13.70
2014,07,25,08,58,13.70
2014,07,25,08,59,13.70
2014,07,25,09,00,13.70
2014,07,25,09,01,13.70
2014,07,25,09,02,13.70
2014,07,25,09,03,13.70
2014,07,25,09,04,13.80
2014,07,25,09,05,13.80
2014,07,25,09,06,13.80
2014,07,25,09,07,13.90
2014,07,25,09,08,13.90
2014,07,25,09,09,14.00
2014,07,25,09,10,14.00
2014,07,25,09,11,14.00
2014,07,25,09,12,14.00
2014,07,25,09,13,14.00
2014,07,25,09,14,14.00
2014,07,25,09,15,14.00
2014,07,25,09,16,14.10
2014,07,25,09,17,14.10
2014,07,25,09,18,14.10
2014,07,25,09,19,14.10
2014,07,25,09,20,14.20
2014,07,25,09,21,14.20
2014,07,25,09,22,14.30
2014,07,25,09,23,14.40
2014,07,25,09,24,14.50
2014,07,25,09,25,14.60
2014,07,25,09,26,14.70
2014,07,25,09,27,14.90
2014,07,25,09,28,15.00
2014,07,25,09,29,15.00
2014,07,25,09,30,15.10
2014,07,25,09,31,15.20
2014,07,25,09,32,15.40
2014,07,25,09,33,15.50
2014,07,25,09,34,15.50
2014,07,25,09,35,15.50
2014,07,25,09,36,15.50
2014,07,25,09,37,15.50
2014,07,25,09,38,15.50
2014,07,25,09,39,15.40
2014,07,25,09,40,15.40
2014,07,25,09,41,15.40
2014,07,25,09,42,15.40
2014,07,25,09,43,15.50
2014,07,25,09,44,15.50
2014,07,25,09,45,15.60
2014,07,25,09,46,15.70
2014,07,25,09,47,15.80
2014,07,25,09,48,15.80
2014,07,25,09,49,15.80
2014,07,25,09,50,15.80
2014,07,25,09,51,15.80
2014,07,25,09,52,15.90
2014,07,25,09,53,15.90
2014,07,25,09,54,16.10
2014,07,25,09,55,16.00
2014,07,25,09,56,15.90
2014,07,25,09,57,15.90
2014,07,25,09,58,15.90
2014,07,25,09,59,15.90
2014,07,25,10,00,15.90
2014,07,25,10,01,15.90
2014,07,25,10,02,15.90
2014,07,25,10,03,15.90
2014,07,25,10,04,16.00
2014,07,25,10,05,16.10
2014,07,25,10,06,16.10
2014,07,25,10,07,16.10
2014,07,25,10,08,16.10
2014,07,25,10,09,16.10
2014,07,25,10,10,16.10
2014,07,25,10,11,16.20
2014,07,25,10,12,16.20
2014,07,25,10,13,16.30
2014,07,25,10,14,16.40
2014,07,25,10,15,16.50
2014,07,25,10,16,16.60
2014,07,25,10,17,16.70
2014,07,25,10,18,16.70
2014,07,25,10,19,16.80
2014,07,25,10,20,16.80
2014,07,25,10,21,16.80
2014,07,25,10,22,16.80
2014,07,25,10,23,16.90
2014,07,25,10,24,16.90
2014,07,25,10,25,17.00
2014,07,25,10,26,17.00
2014,07,25,10,27,17.00
2014,07,25,10,28,17.10
2014,07,25,10,29,17.10
2014,07,25,10,30,17.10
2014,07,25,10,31,17.10
2014,07,25,10,32,17.10
2014,07,25,10,33,17.10
2014,07,25,10,34,17.20
2014,07,25,10,35,17.20
2014,07,25,10,36,17.30
2014,07,25,10,37,17.30
2014,07,25,10,38,17.20
2014,07,25,10,39,17.10
2014,07,25,10,40,17.10
2014,07,25,10,41,17.00
2014,07,25,10,42,16.90
2014,07,25,10,43,16.80
2014,07,25,10,44,16.80
2014,07,25,10,45,16.70
2014,07,25,10,46,16.60
2014,07,25,10,47,16.40
2014,07,25,10,48,16.40
2014,07,25,10,49,16.40
2014,07,25,10,50,16.40
2014,07,25,10,51,16.40
2014,07,25,10,52,16.40
2014,07,25,10,53,16.40
2014,07,25,10,54,16.40
2014,07,25,10,55,16.30
2014,07,25,10,56,16.30
2014,07,25,10,57,16.30
2014,07,25,10,58,16.30
2014,07,25,10,59,16.30
2014,07,25,11,00,16.30
2014,07,25,11,01,16.20
2014,07,25,11,02,16.20
2014,07,25,11,03,16.20
2014,07,25,11,04,16.30
2014,07,25,11,05,16.40
2014,07,25,11,06,16.50
2014,07,25,11,07,16.60
2014,07,25,11,08,16.70
2014,07,25,11,09,16.70
2014,07,25,11,10,16.70
2014,07,25,11,11,16.70
2014,07,25,11,12,16.70
2014,07,25,11,13,16.70
2014,07,25,11,14,16.80
2014,07,25,11,15,16.80
2014,07,25,11,16,16.80
2014,07,25,11,17,16.80
2014,07,25,11,18,16.80
2014,07,25,11,19,16.80
2014,07,25,11,20,16.80
2014,07,25,11,21,16.80
2014,07,25,11,22,16.80
2014,07,25,11,23,16.80
2014,07,25,11,24,16.80
2014,07,25,11,25,16.90
2014,07,25,11,26,16.90
2014,07,25,11,27,16.90
2014,07,25,11,28,17.00
2014,07,25,11,29,17.00
2014,07,25,11,30,17.10
2014,07,25,11,31,17.20
2014,07,25,11,32,17.30
2014,07,25,11,33,17.30
2014,07,25,11,34,17.40
2014,07,25,11,35,17.40
2014,07,25,11,36,17.40
2014,07,25,11,37,17.40
2014,07,25,11,38,17.50
2014,07,25,11,39,17.50
2014,07,25,11,40,17.60
2014,07,25,11,41,17.60
2014,07,25,11,42,17.70
2014,07,25,11,43,17.70
2014,07,25,11,44,17.70
2014,07,25,11,45,17.70
2014,07,25,11,46,17.60
2014,07,25,11,47,17.60
2014,07,25,11,48,17.50
2014,07,25,11,49,17.40
2014,07,25,11,50,17.40
2014,07,25,11,51,17.30
2014,07,25,11,52,17.30
2014,07,25,11,53,17.30
2014,07,25,11,54,17.30
2014,07,25,11,55,17.30
2014,07,25,11,56,17.30
2014,07,25,11,57,17.30
2014,07,25,11,58,17.20
2014,07,25,11,59,17.20
2014,07,25,12,00,17.20
2014,07,25,12,01,17.30
2014,07,25,12,02,17.30
2014,07,25,12,03,17.40
2014,07,25,12,04,17.50
2014,07,25,12,05,17.60
2014,07,25,12,06,17.70
2014,07,25,12,07,17.80
2014,07,25,12,08,17.90
2014,07,25,12,09,17.90
2014,07,25,12,10,17.90
2014,07,25,12,11,17.80
2014,07,25,12,12,17.70
2014,07,25,12,13,17.70
2014,07,25,12,14,17.70
2014,07,25,12,15,17.60
2014,07,25,12,16,17.60
2014,07,25,12,17,17.60
2014,07,25,12,18,17.70
2014,07,25,12,19,17.70
2014,07,25,12,20,17.80
2014,07,25,12,21,17.80
2014,07,25,12,22,17.80
2014,07,25,12,23,17.90
2014,07,25,12,24,17.90
2014,07,25,12,25,17.90
2014,07,25,12,26,17.90
2014,07,25,12,27,17.90
2014,07,25,12,28,17.90
2014,07,25,12,29,17.90
2014,07,25,12,30,17.90
2014,07,25,12,31,17.90
2014,07,25,12,32,17.90
2014,07,25,12,33,18.00
2014,07,25,12,34,18.10
2014,07,25,12,35,18.10
2014,07,25,12,36,18.10
2014,07,25,12,37,18.10
2014,07,25,12,38,18.10
2014,07,25,12,39,18.00
2014,07,25,12,40,17.90
2014,07,25,12,41,17.90
2014,07,25,12,42,17.90
2014,07,25,12,43,17.90
2014,07,25,12,44,17.90
2014,07,25,12,45,17.90
2014,07,25,12,46,18.00
2014,07,25,12,47,18.10
2014,07,25,12,48,18.20
2014,07,25,12,49,18.30
2014,07,25,12,50,18.40
2014,07,25,12,51,18.50
2014,07,25,12,52,18.60
2014,07,25,12,53,18.80
2014,07,25,12,54,18.90
2014,07,25,12,55,18.90
2014,07,25,12,56,18.90
2014,07,25,12,57,18.90
2014,07,25,12,58,18.90
2014,07,25,12,59,18.90
2014,07,25,13,00,18.90
2014,07,25,13,01,18.90
2014,07,25,13,02,18.90
2014,07,25,13,03,18.90
2014,07,25,13,04,19.00
2014,07,25,13,05,19.10
2014,07,25,13,06,19.10
2014,07,25,13,07,19.10
2014,07,25,13,08,19.10
2014,07,25,13,09,19.20
2014,07,25,13,10,19.20
2014,07,25,13,11,19.20
2014,07,25,13,12,19.20
2014,07,25,13,13,19.20
2014,07,25,13,14,19.10
2014,07,25,13,15,19.10
2014,07,25,13,16,19.10
2014,07,25,13,17,19.10
2014,07,25,13,18,19.10
2014,07,25,13,19,19.10
2014,07,25,13,20,19.10
2014,07,25,13,21,19.10
2014,07,25,13,22,19.00
2014,07,25,13,23,18.90
2014,07,25,13,24,18.90
2014,07,25,13,25,19.00
2014,07,25,13,26,19.10
2014,07,25,13,27,19.10
2014,07,25,13,28,19.00
2014,07,25,13,29,18.90
2014,07,25,13,30,18.90
2014,07,25,13,31,19.00
2014,07,25,13,32,19.10
2014,07,25,13,33,19.10
2014,07,25,13,34,19.10
2014,07,25,13,35,19.10
2014,07,25,13,36,19.00
2014,07,25,13,37,19.00
2014,07,25,13,38,19.10
2014,07,25,13,39,19.10
2014,07,25,13,40,19.10
2014,07,25,13,41,19.20
2014,07,25,13,42,19.30
2014,07,25,13,43,19.50
2014,07,25,13,44,19.60
2014,07,25,13,45,19.80
2014,07,25,13,46,19.90
2014,07,25,13,47,19.90
2014,07,25,13,48,19.90
2014,07,25,13,49,19.90
2014,07,25,13,50,19.80
2014,07,25,13,51,19.70
2014,07,25,13,52,19.60
2014,07,25,13,53,19.60
2014,07,25,13,54,19.60
2014,07,25,13,55,19.70
2014,07,25,13,56,19.80
2014,07,25,13,57,19.80
2014,07,25,13,58,19.80
2014,07,25,13,59,19.60
2014,07,25,14,00,19.60
2014,07,25,14,01,19.50
2014,07,25,14,02,19.40
2014,07,25,14,03,19.40
2014,07,25,14,04,19.30
2014,07,25,14,05,19.20
2014,07,25,14,06,19.10
2014,07,25,14,07,19.00
2014,07,25,14,08,18.90
2014,07,25,14,09,18.90
2014,07,25,14,10,18.90
2014,07,25,14,11,18.90
2014,07,25,14,12,18.90
2014,07,25,14,13,18.90
2014,07,25,14,14,18.90
2014,07,25,14,15,18.90
2014,07,25,14,16,18.90
2014,07,25,14,17,18.90
2014,07,25,14,18,18.90
2014,07,25,14,19,18.90
2014,07,25,14,20,18.90
2014,07,25,14,21,18.90
2014,07,25,14,22,18.90
2014,07,25,14,23,19.00
2014,07,25,14,24,19.10
2014,07,25,14,25,19.00
2014,07,25,14,26,19.00
2014,07,25,14,27,19.10
2014,07,25,14,28,19.10
2014,07,25,14,29,19.10
2014,07,25,14,30,19.10
2014,07,25,14,31,19.10
2014,07,25,14,32,19.10
2014,07,25,14,33,19.10
2014,07,25,14,34,19.10
2014,07,25,14,35,19.10
2014,07,25,14,36,19.10
2014,07,25,14,37,19.10
2014,07,25,14,38,19.10
2014,07,25,14,39,19.20
2014,07,25,14,40,19.40
2014,07,25,14,41,19.50
2014,07,25,14,42,19.60
2014,07,25,14,43,19.70
2014,07,25,14,44,19.80
2014,07,25,14,45,19.90
2014,07,25,14,46,20.00
2014,07,25,14,47,20.10
2014,07,25,14,48,20.20
2014,07,25,14,49,20.20
2014,07,25,14,50,20.20
2014,07,25,14,51,20.20
2014,07,25,14,52,20.10
2014,07,25,14,53,20.00
2014,07,25,14,54,19.90
2014,07,25,14,55,19.90
2014,07,25,14,56,19.90
2014,07,25,14,57,20.10
2014,07,25,14,58,20.10
2014,07,25,14,59,20.20
2014,07,25,15,00,20.20
2014,07,25,15,01,20.20
2014,07,25,15,02,20.20
2014,07,25,15,03,20.20
2014,07,25,15,04,20.20
2014,07,25,15,05,20.20
2014,07,25,15,06,20.20
2014,07,25,15,07,20.20
2014,07,25,15,08,20.20
2014,07,25,15,09,20.20
2014,07,25,15,10,20.30
2014,07,25,15,11,20.40
2014,07,25,15,12,20.50
2014,07,25,15,13,20.60
2014,07,25,15,14,20.70
2014,07,25,15,15,20.90
2014,07,25,15,16,21.00
2014,07,25,15,17,21.10
2014,07,25,15,18,21.30
2014,07,25,15,19,21.30
2014,07,25,15,20,21.30
2014,07,25,15,21,21.30
2014,07,25,15,22,21.30
2014,07,25,15,23,21.30
2014,07,25,15,24,21.20
2014,07,25,15,25,21.10
2014,07,25,15,26,21.00
2014,07,25,15,27,20.80
2014,07,25,15,28,20.60
2014,07,25,15,29,20.50
2014,07,25,15,30,20.40
2014,07,25,15,31,20.40
2014,07,25,15,32,20.40
2014,07,25,15,33,20.40
2014,07,25,15,34,20.40
2014,07,25,15,35,20.40
2014,07,25,15,36,20.50
2014,07,25,15,37,20.50
2014,07,25,15,38,20.50
2014,07,25,15,39,20.50
2014,07,25,15,40,20.40
2014,07,25,15,41,20.30
2014,07,25,15,42,20.20
2014,07,25,15,43,20.20
2014,07,25,15,44,20.20
2014,07,25,15,45,20.20
2014,07,25,15,46,20.20
2014,07,25,15,47,20.10
2014,07,25,15,48,20.10
2014,07,25,15,49,20.00
2014,07,25,15,50,19.90
2014,07,25,15,51,19.70
2014,07,25,15,52,19.60
2014,07,25,15,53,19.50
2014,07,25,15,54,19.50
2014,07,25,15,55,19.40
2014,07,25,15,56,19.40
2014,07,25,15,57,19.40
2014,07,25,15,58,19.40
2014,07,25,15,59,19.40
2014,07,25,16,00,19.50
2014,07,25,16,01,19.50
2014,07,25,16,02,19.60
2014,07,25,16,03,19.60
2014,07,25,16,04,19.60
2014,07,25,16,05,19.60
2014,07,25,16,06,19.60
2014,07,25,16,07,19.60
2014,07,25,16,08,19.60
2014,07,25,16,09,19.60
2014,07,25,16,10,19.60
2014,07,25,16,11,19.60
2014,07,25,16,12,19.70
2014,07,25,16,13,19.70
2014,07,25,16,14,19.70
2014,07,25,16,15,19.70
2014,07,25,16,16,19.80
2014,07,25,16,17,19.80
2014,07,25,16,18,19.80
2014,07,25,16,19,19.70
2014,07,25,16,20,19.70
2014,07,25,16,21,19.70
2014,07,25,16,22,19.70
2014,07,25,16,23,19.70
2014,07,25,16,24,19.70
2014,07,25,16,25,19.70
2014,07,25,16,26,19.60
2014,07,25,16,27,19.60
2014,07,25,16,28,19.60
2014,07,25,16,29,19.70
2014,07,25,16,30,19.70
2014,07,25,16,31,19.80
2014,07,25,16,32,19.80
2014,07,25,16,33,19.80
2014,07,25,16,34,19.80
2014,07,25,16,35,19.80
2014,07,25,16,36,19.70
2014,07,25,16,37,19.70
2014,07,25,16,38,19.70
2014,07,25,16,39,19.70
2014,07,25,16,40,19.70
2014,07,25,16,41,19.80
2014,07,25,16,42,19.90
2014,07,25,16,43,19.90
2014,07,25,16,44,19.80
2014,07,25,16,45,19.70
2014,07,25,16,46,19.70
2014,07,25,16,47,19.70
2014,07,25,16,48,19.80
2014,07,25,16,49,19.90
2014,07,25,16,50,20.00
2014,07,25,16,51,20.10
2014,07,25,16,52,20.10
2014,07,25,16,53,20.10
2014,07,25,16,54,20.10
2014,07,25,16,55,20.20
2014,07,25,16,56,20.20
2014,07,25,16,57,20.30
2014,07,25,16,58,20.40
2014,07,25,16,59,20.40
2014,07,25,17,00,20.40
2014,07,25,17,01,20.30
2014,07,25,17,02,20.30
2014,07,25,17,03,20.20
2014,07,25,17,04,20.20
2014,07,25,17,05,20.10
2014,07,25,17,06,20.00
2014,07,25,17,07,19.90
2014,07,25,17,08,19.90
2014,07,25,17,09,19.90
2014,07,25,17,10,19.90
2014,07,25,17,11,19.90
2014,07,25,17,12,20.00
2014,07,25,17,13,20.10
2014,07,25,17,14,20.20
2014,07,25,17,15,20.20
2014,07,25,17,16,20.20
2014,07,25,17,17,20.10
2014,07,25,17,18,20.10
2014,07,25,17,19,20.10
2014,07,25,17,20,20.00
2014,07,25,17,21,19.90
2014,07,25,17,22,19.90
2014,07,25,17,23,19.90
2014,07,25,17,24,19.90
2014,07,25,17,25,19.90
2014,07,25,17,26,19.90
2014,07,25,17,27,19.90
2014,07,25,17,28,19.90